Location: Newark
(40.7060°N, 73.9980°W)
Time: 21:37:03
(UTC+00:00)

N. Korean satellite - Pass Details

Date: 18 November 2019
Orbit: 456 x 506 km, 97.2° (Epoch: 06 December)

Event Time Altitude Azimuth Distance (km) Brightness Sun altitude
Rises 09:44:04 0° 34° (NNE) 2,611 10.6 -23.0°
Reaches altitude 10° 09:47:11 10° 63° (ENE) 1,712 10.1 -22.4°
Maximum altitude 09:48:56 13° 91° (E) 1,527 10.1 -22.1°
Drops below altitude 10° 09:50:40 10° 120° (ESE) 1,695 10.3 -21.8°
Sets 09:53:43 0° 149° (SSE) 2,560 10.8 -21.2°
